Location: Newark
(43.0117°N, 7.5572°W)
Time: 02:15:00
(UTC+00:00)

Envisat - Visible Passes

Search period start: 01 October 2020 00:00
Search period end: 11 October 2020 00:00
Orbit: 764 x 766 km, 98.1° (Epoch: 30 September)

Date Brightness Start Highest point End Pass type
(mag) Time Alt. Az. Time Alt. Az. Time Alt. Az.
02 Oct 5.2 05:51:23 10° NNE 05:55:54 31° E 06:00:23 10° SSE visible
02 Oct 5.9 18:46:44 10° SW 18:50:40 22° W 18:54:38 10° NW visible
03 Oct 6.3 05:16:02 10° ENE 05:18:45 14° E 05:21:27 10° ESE visible
04 Oct 6.4 19:14:10 10° WSW 19:16:24 13° W 19:18:37 10° WNW visible
05 Oct 5.6 05:40:17 10° NE 05:44:27 25° E 05:48:36 10° SSE visible
05 Oct 5.4 18:34:53 10° SSW 18:39:12 28° W 18:43:34 10° NW visible
06 Oct 6.6 05:05:51 10° ENE 05:07:14 11° E 05:08:38 10° ESE visible
07 Oct 4.5 06:05:13 10° NNE 06:10:03 43° E 06:14:52 10° S visible
07 Oct 6.2 19:01:44 10° SW 19:04:54 16° W 19:08:03 10° NW visible
08 Oct 6.0 05:29:18 10° NE 05:32:59 20° E 05:36:38 10° SE visible
08 Oct 5.0 18:23:09 10° SSW 18:27:46 35° W 18:32:26 10° NNW visible
10 Oct 5.0 05:54:01 10° NNE 05:58:38 34° E 06:03:12 10° SSE visible
10 Oct 5.9 18:49:39 10° SW 18:53:24 21° W 18:57:11 10° NW visible
